Погода в Магадане

Погода в Магадане : погода сейчас, прогноз погоды и архив. Всё, что Вы хотите узнать о погоде в Магадане!

Хотите узнать прогноз погоды в Магадане? Тогда Вам сюда: Погода в Магадане

Поиск расширенной информации на нашем сайте:

Другие новости

Новости СМИ2

Главная страница сайта

Новости сайта

02.10.2013

Напоминаем, что на нашем новом сайте вы можете получить высокодетализированные прогнозы погоды по пунктам России, СНГ и мира (включающие важные для авиации метеовеличины, такие как направление и скорость ветра, видимость, явления погоды, количество и форма облачности, нижняя и верхняя граница облачности), а также ознакомиться с разнообразными материалами по авиационной метеорологии и подборкой полезных ссылок на эту тему.

Сайт Метеоцентр.Азия посвящён разработке технологий оптимизации авиаметеорологического обслуживания, включая проектирование и перспективное создание нескольких автоматизированных авиаметеорологических систем:
- система выпуска высокодетальных прогностических карт явлений погоды для нижнего воздушного пространства по России и ближнему зарубежью;
- система верификации прогнозов TAF (выпускаемых синоптиками официальных АМСГ РФ и ближнего зарубежья) и AUTOTAF (выпускаемых сайтом Метеоцентр.Азия) - выявление ошибок, онлайн-сопоставление с фактической погодой METAR, автоматическое внесение коррективов в прогнозы при резком отклонении фактической погоды от прогноза, подсчёт оправдываемости прогнозов по элементам и в целом;
- система обработки, анализа и отображения авиаметеорологической информации для применения провайдерами метеорологической информации.

Рекомендуем: Дисконтная программа в магазине www.minisoft.com.ua.

Погода в Магадане - сегодня

Время (UTC), дата Ветер
(°,м/с) 
Видим.   Явления Облачность Т
(°С)
Тd
(°С)
f(%) Тe
(°С)
Pmin
(гПа)
dP
(гПа)
Po
(мм)
O2
(г/м3)
Тmin Tmax R s Состояние
почвы
21 25.05.17 230 (ЮЗ) 20000 м    10/10 300 м 
[St]
+1.4 -0 90 -1  1011.7  -0.2  748  300  +1.2        влажная 
00 26.05.17 230 (ЮЗ) 4000 м  дымка  10/10 200 м 
[St]
+0.8 -0.3 92 -2  1010.9  -0.8  747  300  +0.8         
03 26.05.17 250 (З) 0200 м  слаб. морось{туман}  ?/?  
+1.6 +0.7 94 -1  1009.7  -1.1  746  299           
06 26.05.17 270 (З) 20000 м  в посл. час туман{морось}  9/9 200 м средняя 
[St|Ac trans]
+1.7 +0.2 90 -1  1008.4  -1.4  746  298           
09 26.05.17 250 (З) 10 км  слаб. ливневой дождь со снегом  9/9 300 м кучево-дожд., средняя 
[Cb cap|Ac trans]
+1.9 -0.5 84 1007.4  -1  745  298    +2.1  0.0     
12 26.05.17 260 (З) 20000 м  {ливн. осадки}  9/8 300 м кучево-дожд., средняя 
[Cb calv|Ac trans]
+2 -0.4 84 1006.1  -1.2  744  298           
15 26.05.17 210 (ЮЗ) 4000 м  слаб. ливневой дождь со снегом  10/10 300 м кучево-дожд. 
[Cb cap]
+0.7 -0.3 93 -2  1004.4  -1.7  743  298           
18 26.05.17 120 (ЮВ) 4000 м  слаб. ливневой дождь  10/10 200 м кучево-дожд. 
[Cb cap]
+0.8 -0.1 94 +1  1003.1  -1.3  742  298           
21 26.05.17 250 (З) 20000 м  {ливн. осадки}  8/8 300 м кучево-дожд. 
[Cb calv]
+2.5 +1.5 93 1002.7  -0.3  741  296  +0.4      влажная 
03 27.05.17 250 (З) 6{10}  20000 м    3/3 300 м 
[St]
+5.9 +2.4 78 +4  1002.3  -0.2  741  292           
06 27.05.17 270 (З) 20000 м    3/3 1000 м верхняя 
[Sc|Ci fib]
+5.5 +2.1 79 +3  1002.3  0.1  741  292           
12 27.05.17 110 (В) 0500 м  туман  ?/?  
+1.6 +0.4 92 1004.8  1.5  743  297           
15 27.05.17 100 (В) 0200 м  туман  ?/?  
+1.1 +0.3 94 1005.3  0.5  743  298           
18 27.05.17 100 (В) 0200 м  туман  ?/?  
+0.4 -0.3 95 -1  1005.6  0.3  743  299           
03 28.05.17 270 (З) 0500 м  туман  8/0 средняя, верхняя 
[Ac trans|Ci fib]
+4.3 +1.8 84 +2  1004.9  -0.3  743  294           
06 28.05.17 270 (З) 20000 м  {туман}  8/5 200 м средняя 
[St|Ac trans]
+4 +1.8 86 +2  1004.6  -0.3  743  295           
12 28.05.17 тихо ()   20000 м    9/8 200 м верхняя 
[St|Ci fib]
+2.5 +1.6 94 +3  1006.7  1.5  744  297           
15 28.05.17 060 (СВ) 0200 м  туман  ?/?  
+2.6 +1.8 94 +3  1007.5  0.9  745  297           
18 28.05.17 080 (В) 20000 м  {туман}  6/3 300 м верхняя 
[St|Ci fib]
+4 +0.6 78 +2  1008.2  0.7  745  296           
00 29.05.17 110 (В) 20000 м    6/4 1000 м средняя 
[Sc|Ac trans]
+13.1 +0.7 43 +12  1009.3  0.4  747  287           
03 29.05.17 280 (З) 2{10}  20000 м    8/5 1000 м средняя, верхняя 
[Sc|Ac trans|Ci fib]
+8.4 +3 69 +8  1010.1  0.6  747  292           
06 29.05.17 270 (З) 20000 м    6/3 1000 м верхняя 
[Sc|Ci fib]
+7.5 +3.2 74 +7  1010.2  0.1  747  292           
12 29.05.17 270 (З) 20000 м    3/1 1000 м верхняя 
[Sc|Ci fib]
+6.3 +1.3 70 +5  1012.2  1.1  749  295           
15 29.05.17 тихо ()   20000 м    1/1 1000 м 
[Sc]
+5.6 -1 62 +6  1012.4  0.1  749  296           
18 29.05.17 130 (ЮВ) 20000 м    3/0 верхняя 
[Ci fib]
+6.8 -2 53 +8  1012.1  -0.2  748  294           
Время (UTC), дата Ветер
(°,м/с) 
Видим.   Явления Облачность Т
(°С)
Тd
(°С)
f(%) Тe
(°С)
Pmin
(гПа)
dP
(гПа)
Po
(мм)
O2
(г/м3)
Тmin Tmax R s Состояние
почвы

Для получения пояснительной информации подведите курсор к названию столбца.

ПОГОДА в Магадане - архив

Всё, что Вы хотите узнать о погоде в Магадане - удобно и подробно!

Выберите нужную дату (начиная с 1 января 2015* года) и нажмите кнопку "Найти".
Будут отображены архивные сводки погоды по пункту Магадан, начиная с указанной даты.


Отображать данные в формате CSV (для использования в таблицах Excel)


Внимание! Наш архив погоды предназначен исключительно для личного некоммерческого использования в познавательных целях. Если Вам необходимы официальные справки о состоянии погоды (для производственных, юридических, коммерческих и т.п. целей), обращайтесь в органы Росгидромета.

*Примечание: данная дата относится к архиву по метеостанциям СССР (Россия, СНГ, Балтия).
Архив по метеостанциям Зарубежной Европы и Азии (кроме Китая) хранится 10 дней, по другим регионам земного шара (Китай, Африка, Америка, Австралия, Океания) - 1 день.

Магадан - район местоположения метеостанции


Название, широта, долгота, высота метеостанции:
Магадан (город) 59.6°ш. 150.8°д. 116 м над ур. моря [Российская Федерация]

Дополнительная информация

В oтличие oт бoльшинства пoгoдных сайтoв мы публикуем пoдрoбную метеoинфoрмацию в детальнoм прoфессиoнальнoм фoрмате.

Характеристики температуры и влажнoсти вoздуха измеряются на высoте 2 м в тени вдали oт зданий и деревьев.
Скoрoсть ветра измеряется на высoте 10 м (на урoвне рoста челoвека скoрoсть ветра ниже в 1.5-2 раза). Если метеoстанция нахoдится в гoрoде или в лесу, тo скoрoсть ветра занижена на 2-4 м/с пo сравнению с oткрытым местoм. Скoрoсть ветра над акватoриями крупных рек и oзёр, а также на вершинах хoлмoв на 2-5 м/с выше, чем в oбычных услoвиях.
Атмoсфернoе давление в разных тoчках местнoсти мoжет значительнo oтличаться oт давления на метеoстанции, в зависимoсти oт услoвий рельефа (при пoдъёме на 10 м давление пoнижается примернo на 1 мм рт.ст.).